EW6810 Weather Reports


Display with metric or nautical units.
time (UTC)temp
F
wind
direction
speed
MPH
gust
MPH
rain 1hr
in
rain 24hr
in
rain mn
in
humidity
%
barometer
mb
20260508170053 56 189 3.0 10.0 0.00 0.00 0.00 75 1014.4
20260508165552 56 122 1.0 8.0 0.00 0.00 0.00 76 1014.4
20260508165051 56 167 2.0 8.0 0.00 0.00 0.00 77 1014.3
20260508164551 56 164 2.0 4.0 0.00 0.00 0.00 79 1014.4
20260508164050 56 321 1.0 4.0 0.00 0.00 0.00 78 1014.3
20260508163547 56 116 0.0 6.0 0.00 0.00 0.00 79 1014.4
20260508163048 55 214 1.0 6.0 0.00 0.00 0.00 79 1014.5
20260508162547 55 101 2.0 8.0 0.00 0.00 0.00 79 1014.2
20260508162047 55 195 2.0 8.0 0.00 0.00 0.00 79 1014.2
20260508161556 55 192 2.0 7.0 0.00 0.00 0.00 79 1014.2
20260508161046 56 208 1.0 4.0 0.00 0.00 0.00 78 1014.0
20260508160546 56 118 0.0 3.0 0.00 0.00 0.00 79 1014.0
20260508160045 56 177 1.0 5.0 0.00 0.00 0.00 79 1013.9
20260508155544 55 142 0.0 5.0 0.00 0.00 0.00 79 1013.8
20260508155043 55 76 1.0 3.0 0.00 0.00 0.00 80 1013.9
20260508154542 55 101 0.0 5.0 0.00 0.00 0.00 80 1013.9
20260508154041 55 280 0.0 5.0 0.00 0.00 0.00 80 1014.1
20260508153541 55 192 2.0 5.0 0.00 0.00 0.00 80 1014.1
20260508153045 55 163 1.0 4.0 0.00 0.00 0.00 81 1014.1
20260508152541 55 219 1.0 4.0 0.00 0.00 0.00 82 1014.0
20260508152038 54 115 0.0 3.0 0.00 0.00 0.00 82 1013.9
20260508151537 54 79 1.0 3.0 0.00 0.00 0.00 83 1013.9
20260508151036 54 190 0.0 3.0 0.00 0.00 0.00 84 1013.9
20260508150635 54 339 0.0 0.0 0.00 0.00 0.00 84 1013.9
20260508150019 54 339 0.0 0.0 0.00 0.00 0.00 84 1013.9
20260508145519 54 339 0.0 0.0 0.00 0.00 0.00 84 1013.9
20260508145018 54 339 0.0 0.0 0.00 0.00 0.00 83 1013.9
20260508144518 54 339 0.0 1.0 0.00 0.00 0.00 83 1013.8
20260508144017 54 339 0.0 1.0 0.00 0.00 0.00 83 1013.7
20260508143517 54 338 0.0 1.0 0.00 0.00 0.00 83 1013.5
20260508143021 54 338 0.0 1.0 0.00 0.00 0.00 83 1013.5
20260508142514 54 338 0.0 1.0 0.00 0.00 0.00 83 1013.4
20260508142114 54 338 0.0 1.0 0.00 0.00 0.00 83 1013.4
20260508141514 54 338 0.0 1.0 0.00 0.00 0.00 83 1013.4
20260508141012 54 338 0.0 1.0 0.00 0.00 0.00 83 1013.5
20260508140512 54 338 0.0 1.0 0.00 0.00 0.00 83 1013.4
20260508140011 53 338 0.0 2.0 0.00 0.00 0.00 83 1013.4
20260508135511 53 338 0.0 2.0 0.00 0.00 0.00 83 1013.2
20260508135010 53 340 0.0 0.0 0.00 0.00 0.00 83 1013.2
20260508134509 53 340 0.0 1.0 0.00 0.00 0.00 83 1013.2
20260508134009 53 340 0.0 1.0 0.00 0.00 0.00 83 1013.2
20260508133516 53 340 0.0 0.0 0.00 0.00 0.00 83 1013.2
20260508133010 53 340 0.0 2.0 0.00 0.00 0.00 83 1013.1
20260508132506 53 340 0.0 2.0 0.00 0.00 0.00 83 1013.1
20260508132007 53 340 0.0 0.0 0.00 0.00 0.00 83 1013.1
20260508131505 53 340 0.0 0.0 0.00 0.00 0.00 83 1013.2
20260508131005 53 340 0.0 2.0 0.00 0.00 0.00 83 1013.1
20260508130504 53 340 0.0 2.0 0.00 0.00 0.00 83 1013.1
20260508130004 53 340 0.0 1.0 0.00 0.00 0.00 83 1013.0
20260508125504 53 340 0.0 0.0 0.00 0.00 0.00 83 1013.0
20260508125005 53 340 0.0 0.0 0.00 0.00 0.00 83 1013.0
20260508124506 53 340 0.0 0.0 0.00 0.00 0.00 83 1012.9
20260508124004 53 340 0.0 1.0 0.00 0.00 0.00 82 1012.8
20260508123504 53 340 0.0 1.0 0.00 0.00 0.00 83 1012.9
20260508123004 53 340 0.0 1.0 0.00 0.00 0.00 82 1012.9
20260508122506 53 340 0.0 1.0 0.00 0.00 0.00 82 1012.9
20260508122004 53 340 0.0 1.0 0.00 0.00 0.00 82 1012.9
20260508121504 53 340 0.0 1.0 0.00 0.00 0.00 82 1012.9
20260508121003 53 340 0.0 1.0 0.00 0.00 0.00 82 1012.9
20260508120503 53 340 0.0 2.0 0.00 0.00 0.00 82 1012.9
20260508120003 53 340 0.0 2.0 0.00 0.00 0.00 82 1012.9
20260508115502 53 340 0.0 1.0 0.00 0.00 0.00 82 1013.0
20260508115001 53 340 0.0 1.0 0.00 0.00 0.00 82 1012.9
20260508114501 53 340 0.0 1.0 0.00 0.00 0.00 82 1012.8
20260508114002 53 340 0.0 2.0 0.00 0.00 0.00 82 1012.9
20260508113501 53 340 0.0 2.0 0.00 0.00 0.00 82 1012.8
20260508113102 54 340 1.0 2.0 0.00 0.00 0.00 82 1012.7
20260508112600 54 339 0.0 2.0 0.00 0.00 0.00 82 1012.8
20260508112101 54 339 0.0 2.0 0.00 0.00 0.00 82 1012.7
20260508111611 54 339 0.0 2.0 0.00 0.00 0.00 82 1012.6
20260508111503 54 339 0.0 2.0 0.00 0.00 0.00 82 1012.6
20260508111100 54 339 0.0 2.0 0.00 0.00 0.00 82 1012.6
20260508110558 54 339 0.0 2.0 0.00 0.00 0.00 82 1012.8
20260508105558 53 340 0.0 1.0 0.00 0.00 0.00 82 1012.8
20260508105058 53 338 0.0 2.0 0.00 0.00 0.00 82 1012.8
20260508104558 53 338 0.0 3.0 0.00 0.00 0.00 82 1012.7
20260508104058 53 339 0.0 3.0 0.00 0.00 0.00 83 1012.7
20260508103558 53 317 1.0 3.0 0.00 0.00 0.00 83 1012.7
20260508103058 54 244 0.0 2.0 0.00 0.00 0.00 83 1012.8
20260508102557 54 244 0.0 2.0 0.00 0.00 0.00 83 1012.7
20260508102057 54 244 0.0 2.0 0.00 0.00 0.00 83 1012.7
20260508101557 54 244 0.0 2.0 0.00 0.00 0.00 83 1012.8
20260508101057 54 244 0.0 1.0 0.00 0.00 0.00 83 1012.8
20260508100556 54 244 0.0 2.0 0.00 0.00 0.00 83 1012.7
20260508100056 54 244 0.0 2.0 0.00 0.00 0.00 83 1012.7
20260508095556 54 244 0.0 0.0 0.00 0.00 0.00 83 1012.7
20260508095059 54 244 0.0 0.0 0.00 0.00 0.00 83 1012.6
20260508094606 54 244 0.0 1.0 0.00 0.00 0.00 83 1012.6
20260508094057 54 244 0.0 2.0 0.00 0.00 0.00 83 1012.5
20260508093555 54 244 0.0 2.0 0.00 0.00 0.00 83 1012.6
20260508093057 54 244 0.0 1.0 0.00 0.00 0.00 83 1012.6
20260508092555 54 244 0.0 1.0 0.00 0.00 0.00 83 1012.6
20260508092054 54 244 0.0 0.0 0.00 0.00 0.00 83 1012.5
20260508091656 54 244 0.0 0.0 0.00 0.00 0.00 83 1012.4
20260508091053 54 244 0.0 0.0 0.00 0.00 0.00 83 1012.5
20260508090552 54 244 0.0 0.0 0.00 0.00 0.00 83 1012.4
20260508090054 54 244 0.0 1.0 0.00 0.00 0.00 83 1012.5
20260508085552 54 244 0.0 1.0 0.00 0.00 0.00 83 1012.6
20260508085054 54 244 0.0 1.0 0.00 0.00 0.00 83 1012.6
20260508084551 54 244 0.0 1.0 0.00 0.00 0.00 82 1012.6
20260508084052 54 244 0.0 1.0 0.00 0.00 0.00 82 1012.7
20260508083551 54 244 0.0 1.0 0.00 0.00 0.00 83 1012.6
20260508083056 54 244 0.0 1.0 0.00 0.00 0.00 83 1012.6
20260508082551 54 244 0.0 1.0 0.00 0.00 0.00 83 1012.7
20260508082051 54 244 0.0 1.0 0.00 0.00 0.00 83 1012.7
20260508081605 54 244 0.0 1.0 0.00 0.00 0.00 82 1012.7
20260508081049 54 244 0.0 1.0 0.00 0.00 0.00 82 1012.7
20260508080552 54 244 0.0 2.0 0.00 0.00 0.00 82 1012.7
20260508080054 54 244 0.0 2.0 0.00 0.00 0.00 82 1012.8
20260508075547 54 244 0.0 2.0 0.00 0.00 0.00 82 1012.9
20260508075047 54 244 0.0 2.0 0.00 0.00 0.00 82 1012.9
20260508074547 54 244 1.0 2.0 0.00 0.00 0.00 82 1012.9
20260508074046 54 244 0.0 2.0 0.00 0.00 0.00 81 1013.0
20260508073546 54 244 0.0 2.0 0.00 0.00 0.00 81 1013.0
20260508073044 54 244 0.0 2.0 0.00 0.00 0.00 80 1013.1
20260508072543 54 222 0.0 1.0 0.00 0.00 0.00 80 1013.1
20260508072042 54 221 0.0 0.0 0.00 0.00 0.00 79 1013.1
20260508071541 54 221 0.0 0.0 0.00 0.00 0.00 79 1013.0
20260508071039 55 221 0.0 0.0 0.00 0.00 0.00 79 1013.1
20260508070538 55 218 0.0 0.0 0.00 0.00 0.00 78 1013.2
20260508070037 55 218 0.0 1.0 0.00 0.00 0.00 78 1013.2
20260508065536 55 218 0.0 1.0 0.00 0.00 0.00 78 1013.2
20260508065036 55 218 0.0 0.0 0.00 0.00 0.00 77 1013.2
20260508064536 55 218 0.0 0.0 0.00 0.00 0.00 77 1013.2
20260508064036 55 218 0.0 2.0 0.00 0.00 0.00 77 1013.3
20260508063536 55 218 0.0 2.0 0.00 0.00 0.00 77 1013.3
20260508063037 55 214 0.0 1.0 0.00 0.00 0.00 77 1013.3
20260508062536 56 214 0.0 1.0 0.00 0.00 0.00 77 1013.3
20260508062036 56 214 0.0 1.0 0.00 0.00 0.00 77 1013.2
20260508061537 56 214 0.0 1.0 0.00 0.00 0.00 78 1013.2
20260508061035 56 214 0.0 1.0 0.00 0.00 0.00 78 1013.2
20260508060535 56 214 0.0 1.0 0.00 0.00 0.00 78 1013.3
20260508060137 56 214 0.0 1.0 0.00 0.00 0.00 78 1013.2
20260508055534 56 214 0.0 1.0 0.00 0.00 0.00 78 1013.2
20260508055034 56 214 0.0 2.0 0.00 0.00 0.00 77 1013.1
20260508054541 56 214 0.0 3.0 0.00 0.00 0.00 77 1013.1
20260508054037 56 261 1.0 3.0 0.00 0.00 0.00 77 1013.0
20260508053534 56 250 0.0 2.0 0.00 0.00 0.00 76 1013.0
20260508053034 56 250 0.0 2.0 0.00 0.00 0.00 76 1013.0
20260508052534 56 250 0.0 2.0 0.00 0.00 0.00 76 1013.0
20260508052036 57 250 0.0 3.0 0.00 0.00 0.00 76 1013.0
20260508051533 57 249 1.0 3.0 0.00 0.00 0.00 76 1012.9
20260508051034 57 55 0.0 2.0 0.00 0.00 0.00 75 1012.8
20260508050634 57 55 0.0 2.0 0.00 0.00 0.00 75 1012.9
20260508050052 57 55 0.0 2.0 0.00 0.00 0.00 75 1013.0
20260508045553 57 55 0.0 2.0 0.00 0.00 0.00 76 1013.1
20260508045057 57 55 0.0 3.0 0.00 0.00 0.00 75 1013.1
20260508044652 57 57 0.0 3.0 0.00 0.00 0.00 75 1013.0
20260508044055 57 49 0.0 2.0 0.00 0.00 0.00 75 1013.1
20260508043555 57 46 1.0 3.0 0.00 0.00 0.00 75 1013.1
20260508043057 57 41 1.0 3.0 0.00 0.00 0.00 75 1013.1
20260508042551 57 34 0.0 2.0 0.00 0.00 0.00 75 1013.1
20260508042051 58 34 0.0 2.0 0.00 0.00 0.00 75 1013.1
20260508041554 57 34 1.0 2.0 0.00 0.00 0.00 75 1013.1
20260508041052 57 167 0.0 0.0 0.00 0.00 0.00 75 1013.2
20260508040652 57 167 0.0 0.0 0.00 0.00 0.00 75 1013.0
20260508040043 57 167 0.0 0.0 0.00 0.00 0.00 76 1013.0
20260508035544 58 167 0.0 0.0 0.00 0.00 0.00 76 1013.0
20260508035045 58 167 0.0 1.0 0.00 0.00 0.00 75 1013.0
20260508034552 58 167 0.0 1.0 0.00 0.00 0.00 75 1013.0
20260508034043 58 167 0.0 1.0 0.00 0.00 0.00 75 1013.0
20260508033543 58 167 0.0 1.0 0.00 0.00 0.00 74 1013.1
20260508033043 58 167 0.0 1.0 0.00 0.00 0.00 74 1013.0
20260508032544 58 167 0.0 1.0 0.00 0.00 0.00 73 1013.0
20260508032042 58 167 0.0 2.0 0.00 0.00 0.00 73 1012.9
20260508031542 58 167 0.0 2.0 0.00 0.00 0.00 72 1012.9
20260508031041 59 167 0.0 1.0 0.00 0.00 0.00 71 1013.0
20260508030641 59 167 0.0 0.0 0.00 0.00 0.00 70 1013.1
20260508030046 58 167 0.0 0.0 0.00 0.00 0.00 70 1013.0
20260508025543 59 167 0.0 0.0 0.00 0.00 0.00 70 1013.0
20260508025041 59 167 0.0 1.0 0.00 0.00 0.00 69 1013.1
20260508024545 59 167 0.0 1.0 0.00 0.00 0.00 68 1013.1
20260508024039 59 167 0.0 1.0 0.00 0.00 0.00 66 1013.2
20260508023541 59 167 0.0 1.0 0.00 0.00 0.00 67 1013.3
20260508023039 59 167 0.0 1.0 0.00 0.00 0.00 69 1013.3
20260508022539 59 167 0.0 2.0 0.00 0.00 0.00 67 1013.3
20260508022039 59 167 0.0 3.0 0.00 0.00 0.00 68 1013.2
20260508021641 59 167 1.0 3.0 0.00 0.00 0.00 66 1013.2
20260508021040 59 169 0.0 2.0 0.00 0.00 0.00 67 1013.3
20260508020638 59 169 0.0 3.0 0.00 0.00 0.00 68 1013.3
20260508020047 59 169 1.0 4.0 0.00 0.00 0.00 66 1013.3
20260508015543 60 277 1.0 4.0 0.00 0.00 0.00 66 1013.4
20260508015042 60 211 1.0 6.0 0.00 0.00 0.00 66 1013.3
20260508014540 60 211 1.0 6.0 0.00 0.00 0.00 65 1013.4
20260508014039 61 140 0.0 3.0 0.00 0.00 0.00 67 1013.5
20260508013538 61 198 0.0 3.0 0.00 0.00 0.00 67 1013.6
20260508013141 61 198 0.0 6.0 0.00 0.00 0.00 65 1013.6
20260508012037 62 101 1.0 5.0 0.00 0.00 0.00 64 1013.5
20260508011542 62 152 0.0 5.0 0.00 0.00 0.00 65 1013.6
20260508011036 62 214 2.0 6.0 0.00 0.00 0.00 63 1013.6
20260508010637 62 209 2.0 6.0 0.00 0.00 0.00 62 1013.7
20260508010036 61 161 1.0 5.0 0.00 0.00 0.00 63 1013.8
20260508005539 62 182 1.0 4.0 0.00 0.00 0.00 62 1013.8
20260508005034 62 129 1.0 4.0 0.00 0.00 0.00 64 1013.9
20260508004537 62 183 1.0 4.0 0.00 0.00 0.00 64 1013.9
20260508004034 61 132 0.0 3.0 0.00 0.00 0.00 67 1014.0
20260508003533 61 181 0.0 6.0 0.00 0.00 0.00 66 1014.1
20260508003032 61 139 1.0 6.0 0.00 0.00 0.00 63 1014.1
20260508002533 62 169 1.0 4.0 0.00 0.00 0.00 65 1014.2
20260508002033 61 339 1.0 6.0 0.00 0.00 0.00 68 1014.2
20260508001533 60 143 0.0 6.0 0.00 0.00 0.00 68 1014.2
20260508001033 60 169 2.0 5.0 0.00 0.00 0.00 67 1014.2
20260508000634 61 149 0.0 6.0 0.00 0.00 0.00 68 1014.1
20260508000027 61 55 0.0 6.0 0.00 0.00 0.00 69 1014.1
20260507235528 60 96 2.0 6.0 0.00 0.00 0.00 68 1014.0
20260507235027 61 93 1.0 6.0 0.00 0.00 0.00 68 1014.1
20260507234528 60 194 1.0 4.0 0.00 0.00 0.00 69 1014.1
20260507234026 60 75 0.0 4.0 0.00 0.00 0.00 69 1014.2
20260507233543 60 130 1.0 4.0 0.00 0.00 0.00 68 1014.1
20260507233043 61 132 1.0 4.0 0.00 0.00 0.00 67 1014.2
20260507232542 61 219 1.0 6.0 0.00 0.00 0.00 68 1014.2
20260507232041 62 19 1.0 6.0 0.00 0.00 0.00 67 1014.1
20260507231548 62 194 2.0 5.0 0.00 0.00 0.00 67 1014.3
20260507231042 62 178 2.0 8.0 0.00 0.00 0.00 66 1014.3
20260507230540 61 84 2.0 10.0 0.00 0.00 0.00 67 1014.2
20260507230041 62 219 2.0 10.0 0.00 0.00 0.00 65 1014.4
20260507225540 63 341 2.0 7.0 0.00 0.00 0.00 66 1014.4
20260507225040 65 32 2.0 5.0 0.00 0.00 0.00 62 1014.4
20260507224539 65 180 1.0 7.0 0.00 0.00 0.00 65 1014.4
20260507224039 64 125 3.0 7.0 0.00 0.00 0.00 64 1014.4
20260507223539 65 167 1.0 5.0 0.00 0.00 0.00 64 1014.4
20260507223038 64 123 3.0 11.0 0.00 0.00 0.00 63 1014.4
20260507222637 65 116 3.0 11.0 0.00 0.00 0.00 63 1014.4
20260507222035 65 75 2.0 4.0 0.00 0.00 0.00 64 1014.5
20260507221534 64 321 1.0 4.0 0.00 0.00 0.00 65 1014.5
20260507221035 64 120 1.0 4.0 0.00 0.00 0.00 67 1014.6
20260507220532 63 184 2.0 4.0 0.00 0.00 0.00 66 1014.6
20260507220032 63 140 1.0 4.0 0.00 0.00 0.00 66 1014.8
20260507215534 63 64 1.0 5.0 0.00 0.00 0.00 65 1014.9
20260507215030 63 184 2.0 5.0 0.00 0.00 0.00 67 1014.9
20260507214532 63 172 1.0 6.0 0.00 0.00 0.00 67 1015.0
20260507214028 63 147 1.0 6.0 0.00 0.00 0.00 68 1015.0
20260507213528 62 140 1.0 5.0 0.00 0.00 0.00 69 1015.1
20260507213029 63 57 1.0 5.0 0.00 0.00 0.00 67 1015.1
20260507212526 63 157 1.0 6.0 0.00 0.00 0.00 67 1015.2
20260507212024 62 191 2.0 8.0 0.00 0.00 0.00 69 1015.2
20260507211525 61 19 1.0 8.0 0.00 0.00 0.00 69 1015.3
20260507211023 62 175 2.0 5.0 0.00 0.00 0.00 69 1015.3
20260507210525 62 169 2.0 6.0 0.00 0.00 0.00 71 1015.4
20260507210023 61 176 0.0 6.0 0.00 0.00 0.00 71 1015.4
20260507205520 60 157 2.0 5.0 0.00 0.00 0.00 74 1015.6
20260507205022 60 353 0.0 3.0 0.00 0.00 0.00 76 1015.6
20260507204519 59 154 1.0 6.0 0.00 0.00 0.00 76 1015.7
20260507204017 59 132 2.0 6.0 0.00 0.00 0.00 75 1015.7
20260507203516 60 17 0.0 5.0 0.00 0.00 0.00 76 1015.8
20260507203014 60 17 1.0 5.0 0.00 0.00 0.00 74 1016.0
20260507202513 60 280 1.0 4.0 0.00 0.00 0.00 77 1015.9
20260507202012 59 229 1.0 6.0 0.00 0.00 0.00 77 1016.0
20260507201515 58 229 0.0 3.0 0.00 0.00 0.00 78 1016.1
20260507201010 58 231 0.0 4.0 0.00 0.00 0.00 77 1016.1
20260507200509 57 132 1.0 4.0 0.00 0.00 0.00 79 1016.2
20260507200009 57 164 1.0 4.0 0.00 0.00 0.00 78 1016.2
20260507195507 57 154 0.0 3.0 0.00 0.00 0.00 80 1016.3
20260507195007 56 153 1.0 7.0 0.00 0.00 0.00 80 1016.2
20260507194507 56 44 0.0 7.0 0.00 0.00 0.00 81 1016.3
20260507194004 56 32 0.0 3.0 0.00 0.00 0.00 83 1016.3
20260507193505 55 153 0.0 3.0 0.00 0.00 0.00 83 1016.5
20260507193003 55 170 0.0 3.0 0.00 0.00 0.00 83 1016.5
20260507192502 55 170 0.0 4.0 0.00 0.00 0.00 84 1016.5
20260507192004 55 50 1.0 4.0 0.00 0.00 0.00 85 1016.5
20260507191502 55 111 0.0 3.0 0.00 0.00 0.00 84 1016.5
20260507191002 55 125 0.0 5.0 0.00 0.00 0.00 85 1016.5
20260507190502 55 46 0.0 5.0 0.00 0.00 0.00 84 1016.5
20260507190002 55 63 1.0 5.0 0.00 0.00 0.00 86 1016.5
20260507185500 54 209 0.0 4.0 0.00 0.00 0.00 86 1016.6
20260507185000 54 209 0.0 4.0 0.00 0.00 0.00 86 1016.6
20260507184502 54 143 0.0 3.0 0.00 0.00 0.00 86 1016.6
20260507184100 54 142 1.0 3.0 0.00 0.00 0.00 86 1016.6
20260507183602 54 46 0.0 3.0 0.00 0.00 0.00 87 1016.6
20260507183106 54 101 0.0 4.0 0.00 0.00 0.00 86 1016.6
20260507182600 54 66 1.0 4.0 0.00 0.00 0.00 86 1016.6
20260507182202 54 255 0.0 3.0 0.00 0.00 0.00 85 1016.7
20260507181559 54 129 0.0 3.0 0.00 0.00 0.00 85 1016.7
20260507181059 54 130 0.0 3.0 0.00 0.00 0.00 84 1016.7
20260507180602 54 92 0.0 3.0 0.00 0.00 0.00 85 1016.8
20260507180058 54 92 1.0 3.0 0.00 0.00 0.00 84 1016.8
20260507175600 55 148 0.0 3.0 0.00 0.00 0.00 85 1016.8
20260507175057 54 188 1.0 3.0 0.00 0.00 0.00 87 1016.9
20260507174606 54 140 0.0 3.0 0.00 0.00 0.00 87 1016.9
20260507174059 54 136 1.0 3.0 0.00 0.00 0.00 88 1016.9
20260507173557 54 14 0.0 3.0 0.00 0.00 0.00 89 1017.0
20260507173100 53 128 1.0 3.0 0.00 0.00 0.00 90 1017.0
20260507172556 52 101 0.0 2.0 0.00 0.00 0.00 90 1017.0
20260507172053 52 101 0.0 2.0 0.00 0.00 0.00 91 1017.0
20260507171607 52 63 0.0 2.0 0.00 0.00 0.00 92 1017.0
20260507171049 51 63 0.0 2.0 0.00 0.00 0.00 92 1017.1
20260507170651 51 63 0.0 2.0 0.00 0.00 0.00 91 1017.1